Location: Gro�sch�nbrunn
(49.5760°N, 11.8868°E)
Time: 14:34:57
(UTC+00:00)

N. Korean satellite - Pass Details

Date: 26 November 2020
Orbit: 453 x 502 km, 97.2° (Epoch: 15 January)

Event Time Altitude Azimuth Distance (km) Brightness Sun altitude
Rises 16:59:32 0° 214° (SSW) 2,457 10.9 -15.8°
Reaches altitude 10° 17:02:37 10° 245° (WSW) 1,595 10.5 -16.3°
Maximum altitude 17:04:04 12° 271° (W) 1,466 10.2 -16.6°
Drops below altitude 10° 17:05:33 10° 296° (WNW) 1,606 9.9 -16.8°
Sets 17:08:41 0° 328° (NNW) 2,497 10.4 -17.3°
